Weather History for Charlottetown, PE

Change the Weather History Date:

Saturday, February 15, 2014

  Actual Average Record
Temperature  
Mean Temperature 22 °F -  
Max Temperature 25 °F 30 °F 44 °F (2000)
Min Temperature 19 °F 14 °F -13 °F (2003)
Degree Days  
Heating Degree Days 43    
Moisture  
Dew Point 16 °F    
Average Humidity 75    
Maximum Humidity 93    
Minimum Humidity 50    
Precipitation  
Precipitation 0.12 in 0.12 in - ()
Sea Level Pressure  
Sea Level Pressure 29.74 in    
Wind  
Wind Speed 11 mph ()    
Max Wind Speed 18 mph    
Max Gust Speed 28 mph    
Visibility 10.7 miles    
Events Snow    
Averages and records for this station are not official NWS values.
T = Trace of Precipitation, MM = Missing Value Source: Averaged Metar Reports

Daily Weather History Graph

Daily Weather History Graph

Search for Another Location

Airport:

Trip Planner

Search our weather history database for the weather conditions in past years. The results will help you decide how hot, cold, wet, or windy it might be!

Date:

Astronomy

Feb. 15, 2014 Rise Set
Actual Time 7:15 AM AST 5:38 PM AST
Civil Twilight 6:44 AM AST 6:09 PM AST
Nautical Twilight 6:09 AM AST 6:44 PM AST
Astronomical Twilight 5:34 AM AST 7:19 PM AST
Moon 6:40 PM AST (2/15) 7:07 AM AST (2/15)
Length of Visible Light 11h 24m
Length of Day
10h 22m
Full, 100% of the Moon is Illuminated
Feb 15
Full
Feb 22
Last Quarter
Mar 1
New
Mar 8
First Quarter
Mar 16
Full

Hourly Weather History & Observations

Time (AST) Temp. Windchill Dew Point Humidity Pressure Visibility Wind Dir Wind Speed Gust Speed Precip Events Conditions
12:00 AM 26.6 °F 14.7 °F 23.0 °F 86% 29.17 in 6.0 mi West 15.0 mph 20.7 mph N/A Snow Light Snow Showers
12:35 AM 26.6 °F 14.3 °F 23.0 °F 86% 29.22 in 2.0 mi West 16.1 mph 26.5 mph N/A Snow Light Snow Showers
12:47 AM 26.6 °F 14.7 °F 23.0 °F 86% 29.24 in 1.0 mi West 15.0 mph 25.3 mph N/A Snow Light Snow Showers
1:00 AM 26.6 °F 15.2 °F 23.0 °F 86% 29.26 in 1.5 mi West 13.8 mph 21.9 mph N/A Snow Light Snow Showers
1:17 AM 26.6 °F 16.2 °F 23.0 °F 86% 29.29 in 2.5 mi West 11.5 mph 19.6 mph N/A Snow Light Snow Showers
2:00 AM 26 °F - 22 °F 80% 29.35 in 3 mi West 13.8 mph - - Snow Light Snow Showers
2:00 AM 24.8 °F 11.9 °F 23.0 °F 93% 29.34 in 3.0 mi West 16.1 mph 23.0 mph N/A Snow Light Snow Showers
3:00 AM 24.8 °F 13.4 °F 23.0 °F 93% 29.42 in 3.0 mi West 12.7 mph 18.4 mph N/A Snow Light Snow Showers
4:00 AM 24.8 °F 12.9 °F 19.4 °F 80% 29.50 in 5.0 mi WNW 13.8 mph 20.7 mph N/A Snow Light Snow Showers
5:00 AM 23.0 °F 11.7 °F 19.4 °F 86% 29.59 in 6.0 mi West 11.5 mph 21.9 mph N/A Snow Light Snow Showers
6:00 AM 23.0 °F 8.7 °F 15.8 °F 74% 29.66 in 12.0 mi West 18.4 mph 27.6 mph N/A Snow Light Snow Showers
6:25 AM 21.2 °F 7.3 °F 12.2 °F 68% 29.69 in 15.0 mi West 16.1 mph 23.0 mph N/A Snow Low Drifting Snow
7:00 AM 19.4 °F 6.6 °F 12.2 °F 74% 29.74 in 15.0 mi West 12.7 mph 21.9 mph N/A Snow Low Drifting Snow
8:00 AM 20 °F - 11 °F 57% 29.82 in 15 mi WNW 11.5 mph - - Snow Low Drifting Snow
8:00 AM 19.4 °F 7.2 °F 10.4 °F 68% 29.82 in 15.0 mi West 11.5 mph 19.6 mph N/A Snow Low Drifting Snow
9:00 AM 19.4 °F 7.9 °F 10.4 °F 68% 29.90 in 15.0 mi WNW 10.4 mph 18.4 mph N/A   Scattered Clouds
10:00 AM 21.2 °F 8.9 °F 12.2 °F 68% 29.92 in 15.0 mi NW 12.7 mph - N/A Snow Light Snow Showers
11:00 AM 21.2 °F 10.1 °F 12.2 °F 68% 29.96 in 15.0 mi NW 10.4 mph - N/A Snow Light Snow Showers
12:00 PM 23.0 °F 14.7 °F 10.4 °F 59% 29.96 in 15.0 mi NW 6.9 mph - N/A   Mostly Cloudy
1:00 PM 23.0 °F 15.8 °F 12.2 °F 63% 29.97 in 15.0 mi North 5.8 mph - N/A   Mostly Cloudy
2:00 PM 23 °F - 12 °F 50% 30.00 in 15 mi NNE 5.8 mph - -   Partly Cloudy
2:00 PM 23.0 °F 15.8 °F 12.2 °F 63% 30.00 in 15.0 mi NE 5.8 mph - N/A   Mostly Cloudy
3:00 PM 23.0 °F 18.4 °F 12.2 °F 63% 30.02 in 15.0 mi NNE 3.5 mph - N/A   Mostly Cloudy
4:00 PM 23.0 °F - 12.2 °F 63% 30.01 in 15.0 mi Calm Calm - N/A   Mostly Cloudy
5:00 PM 21.2 °F 10.1 °F 14.0 °F 74% 30.01 in 15.0 mi NE 10.4 mph - N/A   Mostly Cloudy
6:00 PM 19.4 °F 9.5 °F 14.0 °F 80% 30.00 in 15.0 mi ENE 8.1 mph - N/A   Overcast
7:00 PM 21.2 °F 10.1 °F 14.0 °F 74% 30.00 in 15.0 mi NE 10.4 mph - N/A   Overcast
8:00 PM 21 °F - 15 °F 67% 29.98 in 15 mi ENE 10.4 mph - -   Overcast
8:00 PM 21.2 °F 10.1 °F 14.0 °F 74% 29.98 in 15.0 mi ENE 10.4 mph - N/A   Overcast
9:00 PM 21.2 °F 8.9 °F 15.8 °F 80% 29.94 in 15.0 mi ENE 12.7 mph - N/A   Overcast
10:00 PM 21.2 °F 7.8 °F 15.8 °F 80% 29.89 in 15.0 mi ENE 15.0 mph - N/A   Overcast
11:00 PM 21.2 °F 8.3 °F 15.8 °F 80% 29.84 in 15.0 mi ENE 13.8 mph - N/A   Overcast
11:21 PM 21.2 °F 7.8 °F 15.8 °F 80% 29.81 in 10.0 mi NE 15.0 mph - N/A Snow Light Snow
11:35 PM 21.2 °F 7.3 °F 17.6 °F 86% 29.78 in 2.5 mi NE 16.1 mph - N/A Snow Light Snow
11:42 PM 21.2 °F 6.8 °F 17.6 °F 86% 29.77 in 1.0 mi NE 17.3 mph - N/A Snow Light Snow